Kahului, HI

8:05 AM HST on February 25, 2018 (GMT -1000)
Kahului

Weather History for PHOG - January, 2014

Change the Weather History Date:

Friday, January 3, 2014

  Actual Average Record
Temperature  
Mean Temperature 75 °F 72 °F  
Max Temperature 81 °F 81 °F 88 °F (1957)
Min Temperature 69 °F 64 °F 56 °F (1958)
Degree Days  
Heating Degree Days 0 0  
Month to date heating degree days 0 0  
Since 1 July heating degree days 0 0  
Cooling Degree Days 10 7  
Month to date cooling degree days 27 21  
Year to date cooling degree days 27 21  
Growing Degree Days 24 (Base 50)    
Moisture  
Dew Point 65 °F    
Average Humidity 76    
Maximum Humidity 97    
Minimum Humidity 54    
Precipitation  
Precipitation 0.95 in 0.10 in 3.99 in (2004)
Month to date precipitation 0.96 0.30  
Year to date precipitation 0.96 0.30  
Snow  
Snow 0.00 in - - ()
Month to date snowfall 0.0  
Since 1 July snowfall 0.0  
Snow Depth 0.00 in    
Sea Level Pressure  
Sea Level Pressure 29.82 in    
Wind  
Wind Speed 11 mph (NNW)    
Max Wind Speed 25 mph    
Max Gust Speed 32 mph    
Visibility 9 miles    
Events Rain    
T = Trace of Precipitation, MM = Missing Value Source: NWS Daily Summary

Daily Weather History Graph

Daily Weather History Graph

Search for Another Location

Airport or City:

Trip Planner

Search our weather history database for the weather conditions in past years. The results will help you decide how hot, cold, wet, or windy it might be!

Date:

Astronomy

Jan. 03, 2014 Rise Set
Actual Time 7:03 AM HST 5:57 PM HST
Civil Twilight 6:39 AM HST 6:21 PM HST
Nautical Twilight 6:11 AM HST 6:49 PM HST
Astronomical Twilight 5:44 AM HST 7:16 PM HST
Moon 8:59 AM HST (1/3) 8:53 PM HST (1/3)
Length of Visible Light 11h 42m
Length of Day
10h 54m
Waxing Crescent, 9% of the Moon is Illuminated
Jan 3
Waxing Crescent
Jan 7
First Quarter
Jan 15
Full
Jan 23
Last Quarter
Jan 30
New

Hourly Weather History & Observations

Time (HST) Temp. Heat Index Dew Point Humidity Pressure Visibility Wind Dir Wind Speed Gust Speed Precip Events Conditions
12:01 AM 77.0 °F - 68.0 °F 74% 29.77 in 10.0 mi SSW 19.6 mph - N/A   Mostly Cloudy
12:22 AM 77.0 °F - 69.8 °F 78% 29.76 in 10.0 mi SSW 23.0 mph 27.6 mph N/A   Mostly Cloudy
12:54 AM 77.0 °F - 69.1 °F 76% 29.77 in 10.0 mi SSW 23.0 mph - N/A   Mostly Cloudy
1:54 AM 75.0 °F - 70.0 °F 84% 29.77 in 6.0 mi SSW 15.0 mph - 0.04 in Rain Rain
2:41 AM 73.4 °F - 69.8 °F 88% 29.75 in 5.0 mi SW 12.7 mph 25.3 mph 0.12 in Rain Heavy Rain
2:54 AM 72.0 °F - 68.0 °F 87% 29.75 in 3.0 mi SSW 17.3 mph 26.5 mph 0.31 in Rain Heavy Rain
3:12 AM 71.6 °F - 66.2 °F 83% 29.74 in 9.0 mi South 15.0 mph 31.1 mph 0.10 in Rain Rain
4:19 AM - - - N/A% 29.76 in 4.0 mi SSW 9.2 mph 18.4 mph 0.06 in Rain Heavy Rain
4:28 AM - - - N/A% 29.75 in 2.5 mi SSW 6.9 mph - 0.16 in Rain Heavy Rain
4:34 AM - - - N/A% 29.75 in 3.0 mi Calm Calm - 0.24 in Rain Heavy Rain
4:54 AM - - - N/A% 29.77 in 7.0 mi North 12.7 mph - 0.39 in Rain Light Rain
5:04 AM - - - N/A% 29.76 in 8.0 mi North 18.4 mph 25.3 mph 0.02 in Rain Rain
5:54 AM 69.8 °F - 68.0 °F 94% 29.80 in 10.0 mi ENE 5.8 mph - 0.05 in Rain Light Rain
6:54 AM 71.6 °F - 68.0 °F 88% 29.83 in 10.0 mi North 6.9 mph - 0.00 in   Overcast
7:05 AM 69.8 °F - 68.0 °F 94% 29.81 in 10.0 mi NNW 12.7 mph 17.3 mph 0.00 in Rain Light Rain
7:08 AM 69.8 °F - 68.0 °F 94% 29.81 in 10.0 mi NNW 10.4 mph 17.3 mph 0.00 in Rain Light Rain
7:38 AM 69.8 °F - 68.0 °F 94% 29.82 in 10.0 mi NNW 8.1 mph - 0.00 in   Mostly Cloudy
7:54 AM 71.6 °F - 66.2 °F 83% 29.84 in 10.0 mi Variable 4.6 mph - 0.00 in   Mostly Cloudy
8:54 AM 73.9 °F - 66.0 °F 76% 29.87 in 10.0 mi NNE 9.2 mph - N/A   Overcast
9:54 AM 75.9 °F - 66.0 °F 71% 29.88 in 10.0 mi North 4.6 mph - N/A   Mostly Cloudy
10:54 AM 78.1 °F - 64.9 °F 64% 29.87 in 10.0 mi North 8.1 mph - N/A   Mostly Cloudy
11:54 AM 78.1 °F - 64.9 °F 64% 29.85 in 10.0 mi North 15.0 mph - N/A   Mostly Cloudy
12:54 PM 79.0 °F - 61.0 °F 54% 29.82 in 10.0 mi NNW 12.7 mph - N/A   Mostly Cloudy
1:54 PM 80.1 °F 81.2 °F 62.1 °F 54% 29.81 in 10.0 mi North 12.7 mph - N/A   Mostly Cloudy
2:54 PM 75.0 °F - 66.9 °F 76% 29.82 in 9.0 mi NNE 8.1 mph - 0.00 in Rain Light Rain
3:54 PM 75.9 °F - 61.0 °F 60% 29.82 in 10.0 mi North 15.0 mph - 0.00 in   Mostly Cloudy
4:54 PM 73.9 °F - 61.0 °F 64% 29.85 in 10.0 mi North 13.8 mph - 0.01 in Rain Light Rain
5:54 PM 73.9 °F - 60.1 °F 62% 29.86 in 10.0 mi North 12.7 mph - 0.00 in   Mostly Cloudy
6:54 PM 73.9 °F - 57.9 °F 57% 29.88 in 10.0 mi North 11.5 mph - N/A   Scattered Clouds
7:54 PM 73.0 °F - 57.9 °F 59% 29.90 in 10.0 mi North 11.5 mph - N/A   Clear
8:54 PM 73.0 °F - 60.1 °F 64% 29.91 in 10.0 mi NNW 11.5 mph - N/A   Scattered Clouds
9:27 PM 69.8 °F - 62.6 °F 78% 29.91 in 10.0 mi NE 12.7 mph - 0.00 in Rain Light Rain
9:54 PM 70.0 °F - 61.0 °F 73% 29.92 in 10.0 mi East 5.8 mph - 0.00 in   Overcast
10:54 PM 72.0 °F - 62.1 °F 71% 29.92 in 10.0 mi NNE 15.0 mph - N/A   Overcast
11:54 PM 73.0 °F - 57.9 °F 59% 29.91 in 10.0 mi North 17.3 mph - N/A   Scattered Clouds